This is the latest recevied weather packets stored in our database for station/object WA1TYB-13. If no packets are shown the sender has not sent any weather packets the latest 10 day(s).
| Time | Temp. | Humidity | Pressure | Rain* | Wind** | Luminosity | Snow |
|---|---|---|---|---|---|---|---|
| 1787908666 | 15° C | 52% | 1017.8 hPa | 0 mm | - | 0 W/m² | - |
| 1787908366 | 15° C | 52% | 1017.8 hPa | 0 mm | - | 0 W/m² | - |
| 1787908065 | 15° C | 52% | 1017.5 hPa | 0 mm | - | 0 W/m² | - |
| 1787907762 | 15° C | 51% | 1017.5 hPa | 0 mm | - | 0 W/m² | - |
| 1787907456 | 15° C | 50% | 1017.6 hPa | 0 mm | - | 0 W/m² | - |
| 1787907151 | 15.56° C | 48% | 1017.6 hPa | 0 mm | - | 0 W/m² | - |
| 1787906847 | 15.56° C | 48% | 1017.6 hPa | 0 mm | - | 0 W/m² | - |
| 1787906544 | 16.11° C | 49% | 1017.8 hPa | 0 mm | - | 0 W/m² | - |
| 1787906244 | 16.11° C | 49% | 1017.7 hPa | 0 mm | - | 0 W/m² | - |
| 1787905938 | 16.11° C | 50% | 1017.6 hPa | 0 mm | - | 0 W/m² | - |
| 1787905633 | 15.56° C | 51% | 1017.6 hPa | 0 mm | - | 0 W/m² | - |
| 1787905330 | 15.56° C | 52% | 1017.6 hPa | 0 mm | - | 0 W/m² | - |
| 1787905029 | 15.56° C | 53% | 1017.4 hPa | 0 mm | - | 0 W/m² | - |
| 1787904725 | 15.56° C | 53% | 1017.7 hPa | 0 mm | - | 0 W/m² | - |
| 1787904421 | 15.56° C | 55% | 1017.4 hPa | 0 mm | - | 0 W/m² | - |
| 1787904115 | 16.11° C | 52% | 1017.4 hPa | 0 mm | - | 0 W/m² | - |
| 1787903810 | 16.11° C | 51% | 1017.7 hPa | 0 mm | - | 0 W/m² | - |
| 1787903507 | 16.11° C | 50% | 1017.7 hPa | 0 mm | - | 0 W/m² | - |
| 1787903202 | 15.56° C | 53% | 1017.5 hPa | 0 mm | - | 0 W/m² | - |
| 1787902898 | 16.11° C | 54% | 1017.6 hPa | 0 mm | - | 0 W/m² | - |
| 1787902594 | 15.56° C | 54% | 1017.5 hPa | 0 mm | - | 0 W/m² | - |
| 1787902289 | 15.56° C | 53% | 1017.8 hPa | 0 mm | - | 0 W/m² | - |
| 1787901985 | 16.67° C | 50% | 1017.6 hPa | 0 mm | - | 0 W/m² | - |
| 1787901679 | 16.11° C | 52% | 1017.7 hPa | 0 mm | - | 0 W/m² | - |
| 1787901374 | 16.11° C | 54% | 1017.1 hPa | 0 mm | - | 0 W/m² | - |
* Rain latest hour (hover to see other rain measurements)
** Current wind speed in m/s (hover to see current wind gust speed)